Regional Weather Roundup
Issued by NWS

Home | Current Version | Previous Version | Graphics & Text | Print | Product List | Glossary On
Versions: 1 2 3 4 5 6 7 8 9 10 11 12 13 14 15 16 17 18 19 20 21 22 23 24 25 26 27 28 29 30 31 32 33 34 35 36 37 38 39 40 41 42 43 44 45 46 47 48 49 50
000
ASUS43 KLOT 041808
RWRIL

ILLINOIS REGIONAL WEATHER ROUNDUP
NATIONAL WEATHER SERVICE CHICAGO/ROMEOVILLE IL
100 PM CDT WED MAY 04 2016

NOTE: "FAIR" INDICATES FEW OR NO CLOUDS BELOW 12,000 FEET WITH NO
SIGNIFICANT WEATHER AND/OR OBSTRUCTIONS TO VISIBILITY.

* THESE STATIONS ARE NOT UNDER NWS QUALITY CONTROL. THEY ALSO MAY NOT
  REPORT WEATHER SUCH AS PRECIPITATION OR FOG.

ILZ001-002-007-009-015-016-024-041900-
NORTHWEST ILLINOIS

CITY           SKY/WX    TMP DP  RH WIND       PRES   REMARKS
MOLINE         PTSUNNY   59  36  42 NW13G25   29.86R
6HR MIN TEMP:  49; 6HR MAX TEMP:  60;

STERLING*      PTSUNNY   57  41  54 N17       29.83F
SAVANNA*       PTSUNNY   59  37  44 NW20G25   29.84F
$$

ILZ003-004-008-010-011-017-018-041900-
NORTH CENTRAL ILLINOIS

CITY           SKY/WX    TMP DP  RH WIND       PRES   REMARKS
ROCKFORD       CLOUDY    53  38  56 N20G26    29.83F
6HR MIN TEMP:  47; 6HR MAX TEMP:  54;

FREEPORT*      PTSUNNY   56  38  51 N15G22    29.84S
ROCHELLE*      CLOUDY    53  41  63 N18G25    29.82S
DE KALB*       CLOUDY    49  40  71 N16       29.82S
$$

ILZ005-006-012>014-019>023-041900-
NORTHEAST ILLINOIS

CITY           SKY/WX    TMP DP  RH WIND       PRES   REMARKS
CHICAGO-OHARE  CLOUDY    48  36  63 N17       29.78S
6HR MIN TEMP:  46; 6HR MAX TEMP:  51;

CHICAGO-MIDWAY CLOUDY    50  36  58 NW16      29.78S
6HR MIN TEMP:  46; 6HR MAX TEMP:  51;

AURORA         CLOUDY    50  39  66 N21G29    29.81R
6HR MIN TEMP:  48; 6HR MAX TEMP:  53;

LANSING*       CLOUDY    49  35  58 N14G25    29.78S
JOLIET*        CLOUDY    52  38  57 N14G26    29.80R
WAUKEGAN       CLOUDY    48  37  65 N9G24     29.78S
6HR MIN TEMP:  46; 6HR MAX TEMP:  49;

DUPAGE AIRPORT CLOUDY    50  36  58 NW18      29.79S
6HR MIN TEMP:  47; 6HR MAX TEMP:  53;

KANKAKEE*      CLOUDY    52  40  64 N10       29.78F
WHEELING       CLOUDY    48  36  63 N17G23    29.80R
6HR MIN TEMP:  46; 6HR MAX TEMP:  50;

MORRIS*        CLOUDY    53  41  63 N8G17     29.79S
ROMEOVILLE*    CLOUDY    50  37  59 N20G25    29.79S
NORTHERLY ISL    N/A     46  37  71 N14         N/A
NORTHERLY ISL    N/A     46  37  71 N14         N/A
$$

LMZ740>746-041900-
SOUTHERN LAKE MICHIGAN

STATION/POSITION SKY/WX   TEMP    WIND        PRES    VSBY  WAVE
                          AIR SEA DIR/SP/G                  HT/PER
                          (F)     (DEG/KT/KT) (MB)    (MI)  (FT/S)
SOUTHERN BUOY              41 40  360/ 25/ 31 1007.1R         8/ 7
WILMETTE HARBOR            44 44   30/ 16/ 19   N/A           5/ 6
HARRISON CRIB              46     350/ 22/ 24   N/A
BURNHAM HARBOR             46     350/ 13/ 19   N/A
CALUMET HARBOR             47     340/ 18/ 23 1008.1R
BURNS HARBOR               45     340/ 19     1008.5R
MICHIGAN CITY              43     320/ 29/ 31   N/A
ST. JOSEPH                 42 47                N/A          10/ 7
$$

ILZ025>027-034>036-040-047-049-050-058-095>099-041900-
WEST-CENTRAL ILLINOIS

CITY           SKY/WX    TMP DP  RH WIND       PRES   REMARKS
QUINCY         MOSUNNY   63  41  44 N20G31    29.88S
GALESBURG*     PTSUNNY   58  39  48 N22G32    29.86S
MACOMB*        MOSUNNY   60  38  42 N28G36    29.88F
JACKSONVILLE*  PTSUNNY   60  43  54 NW18G24   29.85S
PITTSFIELD*    MOSUNNY   63  44  50 NW20G28   29.88R
$$

ILZ028>032-037-038-041>044-048-051>054-059>061-041900-
CENTRAL ILLINOIS

CITY           SKY/WX    TMP DP  RH WIND       PRES   REMARKS
PONTIAC        PTSUNNY   55  44  64 NW20G30   29.81R
BLOOMINGTON    PTSUNNY   56  43  61 NW23      29.82R
DECATUR        PTSUNNY   59  43  55 N21G30    29.79S
PEORIA         PTSUNNY   58  37  45 N14G24    29.84R
6HR MIN TEMP:  47; 6HR MAX TEMP:  58;

LACON*         CLOUDY    54  38  55 N17       29.83S
LINCOLN*       PTSUNNY   58  44  59 N13G22    29.82S
SPRINGFIELD    PTSUNNY   59  43  55 N15       29.84R
6HR MIN TEMP:  50; 6HR MAX TEMP:  62;

TAYLORVILLE    CLOUDY    59  46  61 NW18      29.82S
6HR MIN TEMP:  50; 6HR MAX TEMP:  59;

$$

ILZ033-039-045-046-055>057-062-063-041900-
EAST-CENTRAL ILLINOIS

CITY           SKY/WX    TMP DP  RH WIND       PRES   REMARKS
CHAMPAIGN      PTSUNNY   57  43  59 NW20G29   29.77S
RANTOUL*       CLOUDY    58  43  57 NW20G28   29.77S
MATTOON        PTSUNNY   59  43  55 N22G29    29.76S
PARIS*         MOSUNNY   59  46  62 NW13      29.76F
$$

ILZ079-100>102-041900-
SOUTHWEST ILLINOIS

CITY           SKY/WX    TMP DP  RH WIND       PRES   REMARKS
ALTON          PTSUNNY   63  41  45 N17G26    29.83S
BELLEVILLE     MOSUNNY   66  45  45 N12G29    29.80S
CAHOKIA*       LGT RAIN  68  43  40 N20G31    29.82S
SPARTA*        PTSUNNY   63  45  51 N14G21    29.81S
$$

ILZ064>066-069>071-074>076-080>082-084>086-088>090-092>094-041900-
SOUTH-CENTRAL ILLINOIS

CITY           SKY/WX    TMP DP  RH WIND       PRES   REMARKS
CARBONDALE     MOSUNNY   67  44  43 N21G30    29.78R
6HR MIN TEMP:  53; 6HR MAX TEMP:  68; 6HR PCP:  0.03;

CAIRO*         MOSUNNY   69  49  48 NW16G25   29.77R
EFFINGHAM*     PTSUNNY   62  46  56 NW16G26   29.79S
MARION         PTSUNNY   68  45  42 NW16G30   29.78R
MT. VERNON     PTSUNNY   64  45  48 N8G18     29.79R
CENTRALIA*     MOSUNNY   65  48  54 N18G30    29.78S
SALEM*         MOSUNNY   65  44  45 N20G25    29.79R
METROPOLIS*    MOSUNNY   69  54  59 NW13G20   29.76F
$$

ILZ067-068-072-073-078-083-087-091-041900-
SOUTHEAST ILLINOIS

CITY           SKY/WX    TMP DP  RH WIND       PRES   REMARKS
LAWRENCEVILLE  MOSUNNY   64  44  48 N23G30    29.74S
FLORA*         PTSUNNY   64  45  49 N15G21    29.77S
FAIRFIELD*     PTSUNNY   62  46  54 N9G21     29.76R
HARRISBURG*    PTSUNNY   64  49  58 N13G23    29.76R
ROBINSON*      PTSUNNY   58  46  64 N16G22    29.76R
CARMI*         PTSUNNY   62  49  62 NW16G23   29.75R
$$

ABBREVIATIONS USED IN REMARKS
   TC - TEMPERATURE IN CELSIUS
  WCI - WIND CHILL INDEX
   HX - HEAT INDEX
  VSB - VISIBILITY
$$




USA.gov is the U.S. government's official web portal to all federal, state and local government web resources and services.